Home > Weather > Benxi > Past weeks

Flag for China Weather for the Past 2 Weeks in Benxi, Liaoning, China

Now
25 °F

Clear.


Feels Like: 18 °F
Forecast: 14 / 42 °F
Wind: 6 mph from South

Location: Shenyang / Taoxian

Current Time: Feb 9, 2016 at 8:51:34 PM

Latest Report: Feb 9, 2016 at 8:00 PM


Visibility: 10 mi

Pressure: 30.18 "Hg

Humidity: 50%

Dew point: 9 °F

Location of BenxiLocation

Historic Weather in Benxi — Graph

°F

Benxi Temperature Yesterday

Maximum temperature yesterday: 34 °F (at 2:00 PM)
Minimum temperature yesterday: 14 °F (at 11:00 PM)
Average temperature yesterday: 24 °F

High & Low Weather Summary for the Past Weeks

 TemperatureHumidityPressure
High37 °F (Feb 7, 1:00 PM)86% (Feb 8, 2:30 AM)30.66 "Hg (Feb 8, 2:30 AM)
Low-8 °F (Jan 31, 3:30 AM)17% (Jan 29, 2:30 PM)29.83 "Hg (Feb 8, 5:00 AM)
Average15 °F46%30.33 "Hg
* Reported Jan 25 7:00 PM — Feb 9 7:30 PM, Benxi, Weather by CustomWeather, © 2016

Note: Actual official high and low records may vary slightly from our data, if they occured in-between our weather recording intervals... More about our weather records

Advertising

Benxi Weather History for the Previous 24 Hours

 ConditionsComfort  
Time TempWeatherWind HumidityBarometerVisibility
7:30 PM
Tue, Feb 9
27 °FClear.6 mph46%30.18 "Hg10 mi
6:30 PM28 °FClear.3 mph40%30.15 "Hg10 mi
5:30 PM30 °FClear.1 mph40%30.15 "Hg10 mi
4:30 PM36 °FSunny.3 mph27%30.15 "Hg10 mi
4:00 PM37 °FSunny.8 mph26%30.15 "Hg10 mi
3:30 PM37 °FSunny.8 mph28%30.15 "Hg10 mi
3:00 PM37 °FPassing clouds.8 mph28%30.15 "HgN/A
2:30 PM37 °FPassing clouds.6 mph28%30.15 "HgN/A
2:00 PM37 °FPassing clouds.8 mph28%30.15 "HgN/A
1:30 PM37 °FSunny.8 mph28%30.15 "Hg10 mi
1:00 PM36 °FPassing clouds.8 mph30%30.18 "HgN/A
12:30 PM36 °FPassing clouds.6 mph30%30.18 "HgN/A
11:30 AM34 °FPassing clouds.6 mph32%30.21 "HgN/A
11:00 AM32 °FSunny.8 mph34%30.21 "Hg10 mi
10:30 AM32 °FPassing clouds.6 mph40%30.21 "HgN/A
10:00 AM28 °FPassing clouds.3 mph43%30.21 "HgN/A
9:30 AM27 °FSunny.1 mph46%30.21 "Hg10 mi
9:00 AM25 °FClear.1 mph54%30.18 "Hg4 mi
8:30 AM21 °FClear.1 mph58%30.18 "Hg4 mi
8:00 AM18 °FSunny.3 mph62%30.18 "Hg10 mi
7:30 AM12 °FSunny.3 mph73%30.15 "Hg10 mi
7:00 AM10 °FSunny.1 mph67%30.15 "Hg10 mi
6:00 AM10 °FClear.3 mph67%30.12 "Hg10 mi
5:30 AM10 °FClear.3 mph67%30.12 "Hg10 mi
5:00 AM9 °FClear.3 mph72%30.09 "Hg10 mi
4:30 AM10 °FClear.1 mph67%30.09 "Hg10 mi
4:00 AM10 °FClear.3 mph67%30.09 "Hg5 mi
3:30 AM10 °FClear.1 mph72%30.09 "Hg4 mi
3:00 AM10 °FClear.1 mph67%30.07 "Hg3 mi
2:30 AM12 °FClear.1 mph67%30.07 "Hg3 mi
2:00 AM12 °FClear.3 mph67%30.07 "Hg3 mi
1:30 AM10 °FClear.1 mph67%30.07 "Hg3 mi
1:00 AM12 °FClear.1 mph67%30.04 "Hg3 mi
12:30 AM14 °FClear.3 mph62%30.04 "Hg3 mi
12:00 AM12 °FClear.1 mph67%30.04 "Hg3 mi
11:30 PM
Mon, Feb 8
18 °FClear.3 mph58%30.01 "Hg3 mi
11:00 PM14 °FClear.1 mph62%30.01 "Hg3 mi
10:30 PM16 °FClear.1 mph57%30.01 "Hg4 mi
10:00 PM19 °FClear.3 mph49%30.01 "Hg3 mi
9:30 PM16 °FClear.1 mph57%29.98 "Hg3 mi
9:00 PM18 °FClear.1 mph53%29.98 "Hg3 mi
8:30 PM19 °FClear.1 mph49%29.98 "Hg3 mi
8:00 PM21 °FClear.1 mph45%29.98 "Hg3 mi
Weather by CustomWeather, © 2016

See weather overviewHow to use our weather pages